This is the latest recevied weather packets stored in our database for station/object SHLBYV-WX. If no packets are shown the sender has not sent any weather packets the latest 10 day(s).
| Time | Temp. | Humidity | Pressure | Rain* | Wind** | Luminosity | Snow |
|---|---|---|---|---|---|---|---|
| 1777151751 | 16.11° C | 69% | 984.4 hPa | 0 mm | - | - | - |
| 1777150871 | 16.11° C | 69% | 984.4 hPa | 0 mm | - | - | - |
| 1777149950 | 16.11° C | 69% | 984.6 hPa | 0 mm | - | - | - |
| 1777149061 | 16.67° C | 71% | 984.2 hPa | 0 mm | - | - | - |
| 1777148150 | 16.11° C | 71% | 984.2 hPa | 0 mm | - | - | - |
| 1777147271 | 16.67° C | 71% | 984.2 hPa | 0 mm | - | - | - |
| 1777146350 | 16.67° C | 72% | 983.9 hPa | 0 mm | - | - | - |
| 1777145466 | 16.67° C | 72% | 983.9 hPa | 0 mm | - | - | - |
| 1777144551 | 16.11° C | 72% | 983.8 hPa | 0 mm | - | - | - |
| 1777143670 | 15.56° C | 72% | 983.8 hPa | 0 mm | - | - | - |
| 1777142750 | 15.56° C | 72% | 984.3 hPa | 0 mm | - | - | - |
| 1777141867 | 15.56° C | 75% | 984.7 hPa | 0 mm | - | - | - |
| 1777140949 | 15° C | 75% | 984.6 hPa | 0 mm | - | - | - |
| 1777140075 | 15° C | 75% | 984.6 hPa | 0 mm | - | - | - |
| 1777139150 | 15° C | 72% | 984.6 hPa | 0 mm | - | - | - |
| 1777138266 | 14.44° C | 72% | 984.2 hPa | 0 mm | - | - | - |
| 1777137350 | 14.44° C | 72% | 984.2 hPa | 0 mm | - | - | - |
| 1777136469 | 14.44° C | 72% | 984.2 hPa | 0 mm | - | - | - |
| 1777135551 | 14.44° C | 75% | 983.9 hPa | 0 mm | - | - | - |
| 1777134662 | 13.89° C | 79% | 984.1 hPa | 0 mm | - | - | - |
| 1777133750 | 12.78° C | 79% | 984 hPa | 0 mm | - | - | - |
| 1777132876 | 12.78° C | 79% | 984 hPa | 0 mm | - | - | - |
| 1777131950 | 12.78° C | 81% | 983.1 hPa | 0 mm | - | - | - |
| 1777131063 | 12.78° C | 82% | 983.4 hPa | 0 mm | - | - | - |
| 1777130150 | 12.22° C | 82% | 983.4 hPa | 0 mm | - | - | - |
* Rain latest hour (hover to see other rain measurements)
** Current wind speed in m/s (hover to see current wind gust speed)